Time,TemperatureF,DewpointF,PressureIn,WindDirection,WindDirectionDegrees,WindSpeedMPH,WindSpeedGustMPH,Humidity,HourlyPrecipIn,Conditions,Clouds,dailyrainin,SolarRadiationWatts/m^2,SoftwareType,DateUTC
2013-06-15 00:01:00,75.8,72.0,29.90,South,181,0.0,0.0,88,0.00,,CLR,0.01,0.00,VWS V14.00,2013-06-15 04:01:00,
2013-06-15 00:02:00,75.8,72.0,29.91,South,181,0.0,0.0,88,0.00,,CLR,0.00,0.00,VWS V14.00,2013-06-15 04:02:00,
2013-06-15 00:07:00,75.7,72.2,29.90,South,181,0.0,0.0,89,0.00,,CLR,0.00,0.00,VWS V14.00,2013-06-15 04:07:00,
2013-06-15 00:12:00,75.7,72.2,29.90,South,181,0.0,0.0,89,0.00,,CLR,0.00,0.00,VWS V14.00,2013-06-15 04:12:00,
2013-06-15 00:17:00,75.7,72.2,29.90,South,181,0.0,0.0,89,0.00,,CLR,0.00,0.00,VWS V14.00,2013-06-15 04:17:00,
2013-06-15 00:22:00,75.7,72.2,29.90,South,181,0.0,0.0,89,0.00,,CLR,0.00,0.00,VWS V14.00,2013-06-15 04:22:00,
2013-06-15 00:27:00,75.7,72.2,29.90,South,181,0.0,0.0,89,0.00,,CLR,0.00,0.00,VWS V14.00,2013-06-15 04:27:00,
2013-06-15 00:32:00,75.7,72.2,29.90,South,181,0.0,0.0,89,0.00,,CLR,0.00,0.00,VWS V14.00,2013-06-15 04:32:00,
2013-06-15 00:37:00,75.7,72.2,29.90,South,181,0.0,0.0,89,0.00,,CLR,0.00,0.00,VWS V14.00,2013-06-15 04:37:00,
2013-06-15 00:42:00,75.7,72.2,29.90,South,181,0.0,0.0,89,0.00,,CLR,0.00,0.00,VWS V14.00,2013-06-15 04:42:00,
2013-06-15 00:47:00,75.7,72.2,29.90,South,181,0.0,0.0,89,0.00,,CLR,0.00,0.00,VWS V14.00,2013-06-15 04:47:00,
2013-06-15 00:52:00,75.6,72.1,29.90,South,181,0.0,0.0,89,0.00,,CLR,0.00,0.00,VWS V14.00,2013-06-15 04:52:00,
2013-06-15 00:57:00,75.6,72.1,29.90,South,181,0.0,0.0,89,0.00,,CLR,0.00,0.00,VWS V14.00,2013-06-15 04:57:00,
2013-06-15 01:02:00,75.6,72.1,29.90,South,181,0.0,0.0,89,0.00,,CLR,0.00,0.00,VWS V14.00,2013-06-15 05:02:00,
2013-06-15 01:07:00,75.6,72.1,29.90,South,181,0.0,0.0,89,0.00,,CLR,0.00,0.00,VWS V14.00,2013-06-15 05:07:00,
2013-06-15 01:12:00,75.5,72.0,29.91,South,181,0.0,0.0,89,0.00,,CLR,0.00,0.00,VWS V14.00,2013-06-15 05:12:00,
2013-06-15 01:17:00,75.6,72.1,29.90,South,181,0.0,0.0,89,0.00,,CLR,0.00,0.00,VWS V14.00,2013-06-15 05:17:00,
2013-06-15 01:22:00,75.7,72.2,29.90,South,181,0.0,0.0,89,0.00,,CLR,0.00,0.00,VWS V14.00,2013-06-15 05:22:00,
2013-06-15 01:27:00,75.6,72.1,29.90,South,181,0.0,0.0,89,0.00,,CLR,0.00,0.00,VWS V14.00,2013-06-15 05:27:00,
2013-06-15 01:32:00,75.5,72.0,29.90,South,181,0.0,0.0,89,0.00,,CLR,0.00,0.00,VWS V14.00,2013-06-15 05:32:00,
2013-06-15 01:37:00,75.5,72.0,29.90,South,181,0.0,0.0,89,0.00,,CLR,0.00,0.00,VWS V14.00,2013-06-15 05:37:00,
2013-06-15 01:42:00,75.5,72.0,29.90,South,181,0.0,0.0,89,0.00,,CLR,0.00,0.00,VWS V14.00,2013-06-15 05:42:00,
2013-06-15 01:47:00,75.4,71.9,29.90,South,181,0.0,0.0,89,0.00,,CLR,0.00,0.00,VWS V14.00,2013-06-15 05:47:00,
2013-06-15 01:52:00,75.3,71.8,29.90,South,181,0.0,0.0,89,0.00,,CLR,0.00,0.00,VWS V14.00,2013-06-15 05:52:00,
2013-06-15 01:57:00,75.3,71.8,29.90,South,181,0.0,0.0,89,0.00,,CLR,0.00,0.00,VWS V14.00,2013-06-15 05:57:00,
2013-06-15 02:02:00,75.3,71.8,29.90,South,181,0.0,0.0,89,0.00,,CLR,0.00,0.00,VWS V14.00,2013-06-15 06:02:00,
2013-06-15 02:07:00,75.3,72.2,29.90,South,181,0.0,0.0,90,0.00,,CLR,0.00,0.00,VWS V14.00,2013-06-15 06:07:00,
2013-06-15 02:12:00,75.2,72.1,29.90,South,181,0.0,1.0,90,0.00,,CLR,0.00,0.00,VWS V14.00,2013-06-15 06:12:00,
2013-06-15 02:17:00,75.3,72.2,29.90,South,181,0.0,0.0,90,0.00,,CLR,0.00,0.00,VWS V14.00,2013-06-15 06:17:00,
2013-06-15 02:22:00,75.2,72.1,29.91,South,181,0.0,0.0,90,0.00,,CLR,0.00,0.00,VWS V14.00,2013-06-15 06:22:00,
2013-06-15 02:27:00,75.5,72.4,29.91,South,181,0.0,0.0,90,0.00,,CLR,0.00,0.00,VWS V14.00,2013-06-15 06:27:00,
2013-06-15 02:32:00,75.8,72.7,29.91,South,181,0.0,0.0,90,0.00,,CLR,0.00,0.00,VWS V14.00,2013-06-15 06:32:00,
2013-06-15 02:37:00,76.0,72.9,29.91,South,181,0.0,0.0,90,0.00,,CLR,0.00,0.00,VWS V14.00,2013-06-15 06:37:00,
2013-06-15 02:42:00,76.1,73.0,29.90,South,181,0.0,1.0,90,0.00,,CLR,0.00,0.00,VWS V14.00,2013-06-15 06:42:00,
2013-06-15 02:47:00,76.2,73.1,29.90,South,181,1.0,2.0,90,0.00,,CLR,0.00,0.00,VWS V14.00,2013-06-15 06:47:00,
2013-06-15 02:52:00,76.2,73.1,29.90,South,181,0.0,0.0,90,0.00,,CLR,0.00,0.00,VWS V14.00,2013-06-15 06:52:00,
2013-06-15 02:57:00,76.2,73.1,29.89,South,181,0.0,1.0,90,0.00,,CLR,0.00,0.00,VWS V14.00,2013-06-15 06:57:00,
2013-06-15 03:02:00,76.2,73.1,29.89,South,181,1.0,1.0,90,0.00,,CLR,0.00,0.00,VWS V14.00,2013-06-15 07:02:00,
2013-06-15 03:07:00,76.2,73.1,29.89,South,181,3.0,3.0,90,0.00,,CLR,0.00,0.00,VWS V14.00,2013-06-15 07:07:00,
2013-06-15 03:12:00,76.3,73.2,29.89,South,182,0.0,0.0,90,0.00,,CLR,0.00,0.00,VWS V14.00,2013-06-15 07:12:00,
2013-06-15 03:17:00,76.4,73.2,29.89,South,182,1.0,1.0,90,0.00,,CLR,0.00,0.00,VWS V14.00,2013-06-15 07:17:00,
2013-06-15 03:22:00,76.4,73.2,29.89,South,182,0.0,0.0,90,0.00,,CLR,0.00,0.00,VWS V14.00,2013-06-15 07:22:00,
2013-06-15 03:27:00,76.4,73.2,29.89,South,182,0.0,1.0,90,0.00,,CLR,0.00,0.00,VWS V14.00,2013-06-15 07:27:00,
2013-06-15 03:32:00,76.4,73.2,29.89,South,182,0.0,2.0,90,0.00,,CLR,0.00,0.00,VWS V14.00,2013-06-15 07:32:00,
2013-06-15 03:37:00,76.3,73.2,29.89,South,182,2.0,4.0,90,0.00,,CLR,0.00,0.00,VWS V14.00,2013-06-15 07:37:00,
2013-06-15 03:42:00,76.3,73.2,29.89,South,182,0.0,0.0,90,0.00,,CLR,0.00,0.00,VWS V14.00,2013-06-15 07:42:00,
2013-06-15 03:47:00,76.3,73.2,29.90,South,182,0.0,0.0,90,0.00,,CLR,0.00,0.00,VWS V14.00,2013-06-15 07:47:00,
2013-06-15 03:52:00,76.3,73.2,29.90,South,182,1.0,3.0,90,0.00,,CLR,0.00,0.00,VWS V14.00,2013-06-15 07:52:00,
2013-06-15 03:57:00,76.3,73.2,29.90,South,182,0.0,1.0,90,0.00,,CLR,0.00,0.00,VWS V14.00,2013-06-15 07:57:00,
2013-06-15 04:02:00,76.2,73.1,29.90,South,182,0.0,2.0,90,0.00,,CLR,0.00,0.00,VWS V14.00,2013-06-15 08:02:00,
2013-06-15 04:07:00,76.2,73.1,29.90,South,182,2.0,4.0,90,0.00,,CLR,0.00,0.00,VWS V14.00,2013-06-15 08:07:00,
2013-06-15 04:12:00,76.2,73.1,29.90,South,182,0.0,0.0,90,0.00,,CLR,0.00,0.00,VWS V14.00,2013-06-15 08:12:00,
2013-06-15 04:17:00,76.2,73.1,29.90,South,182,0.0,0.0,90,0.00,,CLR,0.00,0.00,VWS V14.00,2013-06-15 08:17:00,
2013-06-15 04:22:00,76.2,73.1,29.90,South,182,0.0,0.0,90,0.00,,CLR,0.00,0.00,VWS V14.00,2013-06-15 08:22:00,
2013-06-15 04:27:00,76.3,73.2,29.90,South,182,0.0,0.0,90,0.00,,CLR,0.00,0.00,VWS V14.00,2013-06-15 08:27:00,
2013-06-15 04:32:00,76.3,73.2,29.90,South,182,0.0,0.0,90,0.00,,CLR,0.00,0.00,VWS V14.00,2013-06-15 08:32:00,
2013-06-15 04:37:00,76.3,73.2,29.91,South,182,0.0,0.0,90,0.00,,CLR,0.00,0.00,VWS V14.00,2013-06-15 08:37:00,
2013-06-15 04:42:00,76.2,73.1,29.91,South,182,0.0,0.0,90,0.00,,CLR,0.00,0.00,VWS V14.00,2013-06-15 08:42:00,
2013-06-15 04:47:00,76.2,73.1,29.91,South,182,0.0,0.0,90,0.00,,CLR,0.00,0.00,VWS V14.00,2013-06-15 08:47:00,
2013-06-15 04:52:00,76.2,73.1,29.91,South,182,0.0,0.0,90,0.00,,CLR,0.00,0.00,VWS V14.00,2013-06-15 08:52:00,
2013-06-15 04:57:00,76.2,73.1,29.91,South,182,0.0,0.0,90,0.00,,CLR,0.00,0.00,VWS V14.00,2013-06-15 08:57:00,
2013-06-15 05:03:00,76.3,73.2,29.91,South,182,0.0,0.0,90,0.00,,CLR,0.00,0.00,VWS V14.00,2013-06-15 09:03:00,
2013-06-15 05:08:00,76.2,73.1,29.92,South,182,0.0,1.0,90,0.00,,CLR,0.00,0.00,VWS V14.00,2013-06-15 09:08:00,
2013-06-15 05:13:00,76.2,73.1,29.92,South,182,0.0,0.0,90,0.00,,CLR,0.00,0.00,VWS V14.00,2013-06-15 09:13:00,
2013-06-15 05:18:00,76.1,73.0,29.92,South,182,0.0,1.0,90,0.00,,CLR,0.00,0.00,VWS V14.00,2013-06-15 09:18:00,
2013-06-15 05:23:00,76.0,72.9,29.92,South,182,0.0,0.0,90,0.00,,CLR,0.00,0.00,VWS V14.00,2013-06-15 09:23:00,
2013-06-15 05:28:00,76.1,73.0,29.92,South,182,0.0,0.0,90,0.00,,CLR,0.00,0.00,VWS V14.00,2013-06-15 09:28:00,
2013-06-15 05:33:00,76.1,73.0,29.92,South,182,0.0,0.0,90,0.00,,CLR,0.00,0.00,VWS V14.00,2013-06-15 09:33:00,
2013-06-15 05:38:00,76.0,72.9,29.92,South,182,0.0,2.0,90,0.00,,CLR,0.00,0.00,VWS V14.00,2013-06-15 09:38:00,
2013-06-15 05:43:00,75.9,72.8,29.92,South,182,0.0,0.0,90,0.00,,CLR,0.00,0.00,VWS V14.00,2013-06-15 09:43:00,
2013-06-15 05:48:00,75.9,72.8,29.92,South,182,0.0,0.0,90,0.00,,CLR,0.00,0.00,VWS V14.00,2013-06-15 09:48:00,
2013-06-15 05:53:00,76.0,72.9,29.92,South,182,0.0,0.0,90,0.00,,CLR,0.00,0.00,VWS V14.00,2013-06-15 09:53:00,
2013-06-15 05:58:00,75.9,72.8,29.92,South,182,0.0,0.0,90,0.00,,CLR,0.00,0.00,VWS V14.00,2013-06-15 09:58:00,
2013-06-15 06:03:00,76.0,72.9,29.92,South,182,0.0,0.0,90,0.00,,CLR,0.00,0.00,VWS V14.00,2013-06-15 10:03:00,
2013-06-15 06:08:00,75.9,72.8,29.93,South,182,0.0,0.0,90,0.00,,CLR,0.00,0.00,VWS V14.00,2013-06-15 10:08:00,
2013-06-15 06:13:00,75.9,72.8,29.93,South,182,0.0,0.0,90,0.00,,CLR,0.00,0.00,VWS V14.00,2013-06-15 10:13:00,
2013-06-15 06:18:00,75.9,72.8,29.93,South,182,0.0,0.0,90,0.00,,CLR,0.00,0.00,VWS V14.00,2013-06-15 10:18:00,
2013-06-15 06:23:00,75.9,72.8,29.93,South,182,0.0,0.0,90,0.00,,CLR,0.00,0.00,VWS V14.00,2013-06-15 10:23:00,
2013-06-15 06:28:00,75.8,72.7,29.94,South,182,0.0,0.0,90,0.00,,CLR,0.00,0.00,VWS V14.00,2013-06-15 10:28:00,
2013-06-15 06:33:00,75.4,72.3,29.94,South,182,0.0,0.0,90,0.00,,CLR,0.00,0.00,VWS V14.00,2013-06-15 10:33:00,
2013-06-15 06:38:00,75.4,72.3,29.94,South,182,0.0,0.0,90,0.00,,CLR,0.00,5.00,VWS V14.00,2013-06-15 10:38:00,
2013-06-15 06:43:00,75.3,72.2,29.94,South,182,0.0,0.0,90,0.00,,CLR,0.00,11.00,VWS V14.00,2013-06-15 10:43:00,
2013-06-15 06:48:00,75.2,72.1,29.94,South,182,0.0,1.0,90,0.00,,CLR,0.00,53.00,VWS V14.00,2013-06-15 10:48:00,
2013-06-15 06:53:00,75.0,71.9,29.95,South,176,0.0,1.0,90,0.00,,CLR,0.00,153.00,VWS V14.00,2013-06-15 10:53:00,
2013-06-15 06:58:00,75.0,71.9,29.95,South,186,0.0,1.0,90,0.00,,CLR,0.00,190.00,VWS V14.00,2013-06-15 10:58:00,
2013-06-15 07:03:00,75.2,72.1,29.95,South,186,0.0,0.0,90,0.00,,CLR,0.00,230.00,VWS V14.00,2013-06-15 11:03:00,
2013-06-15 07:08:00,75.4,72.3,29.95,South,186,0.0,0.0,90,0.00,,CLR,0.00,225.00,VWS V14.00,2013-06-15 11:08:00,
2013-06-15 07:13:00,75.6,72.5,29.95,South,186,0.0,0.0,90,0.00,,CLR,0.00,281.00,VWS V14.00,2013-06-15 11:13:00,
2013-06-15 07:18:00,75.7,72.6,29.95,South,186,0.0,0.0,90,0.00,,CLR,0.00,283.00,VWS V14.00,2013-06-15 11:18:00,
2013-06-15 07:23:00,75.8,72.7,29.95,South,186,0.0,1.0,90,0.00,,CLR,0.00,260.00,VWS V14.00,2013-06-15 11:23:00,
2013-06-15 07:28:00,76.1,73.0,29.95,South,186,0.0,0.0,90,0.00,,CLR,0.00,274.00,VWS V14.00,2013-06-15 11:28:00,
2013-06-15 07:33:00,76.5,73.3,29.95,South,186,0.0,1.0,90,0.00,,CLR,0.00,267.00,VWS V14.00,2013-06-15 11:33:00,
2013-06-15 07:38:00,76.9,73.8,29.95,South,186,0.0,1.0,90,0.00,,CLR,0.00,248.00,VWS V14.00,2013-06-15 11:38:00,
2013-06-15 07:43:00,77.0,73.8,29.96,South,186,0.0,1.0,90,0.00,,CLR,0.00,248.00,VWS V14.00,2013-06-15 11:43:00,
2013-06-15 07:48:00,77.2,74.0,29.96,South,186,1.0,1.0,90,0.00,,CLR,0.00,246.00,VWS V14.00,2013-06-15 11:48:00,
2013-06-15 07:53:00,77.3,74.1,29.95,South,186,0.0,1.0,90,0.00,,CLR,0.00,251.00,VWS V14.00,2013-06-15 11:53:00,
2013-06-15 07:58:00,77.6,74.4,29.95,South,188,1.0,4.0,90,0.00,,CLR,0.00,246.00,VWS V14.00,2013-06-15 11:58:00,
2013-06-15 08:03:00,77.8,74.3,29.96,SSW,192,0.0,1.0,89,0.00,,CLR,0.00,237.00,VWS V14.00,2013-06-15 12:03:00,
2013-06-15 08:08:00,78.2,74.7,29.95,SSW,193,0.0,4.0,89,0.00,,CLR,0.00,225.00,VWS V14.00,2013-06-15 12:08:00,
2013-06-15 08:13:00,78.5,74.7,29.95,SSW,194,2.0,4.0,88,0.00,,CLR,0.00,214.00,VWS V14.00,2013-06-15 12:13:00,
2013-06-15 08:18:00,78.7,74.8,29.96,West,260,0.0,6.0,88,0.00,,CLR,0.00,211.00,VWS V14.00,2013-06-15 12:18:00,
2013-06-15 08:23:00,78.9,75.1,29.95,West,271,0.0,4.0,88,0.00,,CLR,0.00,199.00,VWS V14.00,2013-06-15 12:23:00,
2013-06-15 08:28:00,79.3,75.1,29.96,West,272,2.0,3.0,87,0.00,,CLR,0.00,202.00,VWS V14.00,2013-06-15 12:28:00,
2013-06-15 08:33:00,79.4,74.8,29.96,NW,319,2.0,4.0,86,0.00,,CLR,0.00,193.00,VWS V14.00,2013-06-15 12:33:00,
2013-06-15 08:38:00,79.7,75.2,29.96,NW,320,0.0,7.0,86,0.00,,CLR,0.00,192.00,VWS V14.00,2013-06-15 12:38:00,
2013-06-15 08:43:00,80.0,75.4,29.96,NW,323,3.0,5.0,86,0.00,,CLR,0.00,193.00,VWS V14.00,2013-06-15 12:43:00,
2013-06-15 08:48:00,80.1,75.2,29.96,NW,325,0.0,1.0,85,0.00,,CLR,0.00,156.00,VWS V14.00,2013-06-15 12:48:00,
2013-06-15 08:53:00,80.1,74.8,29.96,NNW,346,5.0,7.0,84,0.00,,CLR,0.00,90.00,VWS V14.00,2013-06-15 12:53:00,
2013-06-15 08:58:00,79.9,74.6,29.97,North,355,4.0,4.0,84,0.00,,CLR,0.00,158.00,VWS V14.00,2013-06-15 12:58:00,
2013-06-15 09:03:00,80.0,74.4,29.97,North,11,4.0,7.0,83,0.00,,CLR,0.00,188.00,VWS V14.00,2013-06-15 13:03:00,
2013-06-15 09:08:00,80.2,74.6,29.97,North,11,0.0,5.0,83,0.00,,CLR,0.00,165.00,VWS V14.00,2013-06-15 13:08:00,
2013-06-15 09:13:00,80.6,75.0,29.97,North,11,3.0,4.0,83,0.00,,CLR,0.00,185.00,VWS V14.00,2013-06-15 13:13:00,
2013-06-15 09:18:00,80.8,74.8,29.97,NNE,28,4.0,7.0,82,0.00,,CLR,0.00,197.00,VWS V14.00,2013-06-15 13:18:00,
2013-06-15 09:23:00,80.7,74.7,29.97,NNE,30,2.0,5.0,82,0.00,,CLR,0.00,200.00,VWS V14.00,2013-06-15 13:23:00,
2013-06-15 09:28:00,80.8,74.8,29.98,NNE,29,2.0,5.0,82,0.00,,CLR,0.00,67.00,VWS V14.00,2013-06-15 13:28:00,
2013-06-15 09:33:00,80.9,74.9,29.97,NNE,29,0.0,1.0,82,0.00,,CLR,0.00,200.00,VWS V14.00,2013-06-15 13:33:00,
2013-06-15 09:38:00,81.1,75.1,29.97,NNE,27,3.0,5.0,82,0.00,,CLR,0.00,200.00,VWS V14.00,2013-06-15 13:38:00,
2013-06-15 09:43:00,81.2,74.4,29.98,NNE,26,2.0,5.0,80,0.00,,CLR,0.00,206.00,VWS V14.00,2013-06-15 13:43:00,
2013-06-15 09:48:00,81.6,74.8,29.97,NNE,25,1.0,4.0,80,0.00,,CLR,0.00,209.00,VWS V14.00,2013-06-15 13:48:00,
2013-06-15 09:53:00,82.1,74.9,29.98,NNE,25,0.0,3.0,79,0.00,,CLR,0.00,209.00,VWS V14.00,2013-06-15 13:53:00,
2013-06-15 09:58:00,82.3,74.8,29.97,NNE,24,0.0,0.0,78,0.00,,CLR,0.00,211.00,VWS V14.00,2013-06-15 13:58:00,
2013-06-15 10:04:00,82.2,74.3,29.97,NE,43,0.0,3.0,77,0.00,,CLR,0.00,209.00,VWS V14.00,2013-06-15 14:04:00,
2013-06-15 10:09:00,82.2,74.3,29.97,NE,43,0.0,3.0,77,0.00,,CLR,0.00,209.00,VWS V14.00,2013-06-15 14:09:00,
2013-06-15 10:14:00,82.3,74.0,29.97,NE,43,4.0,4.0,76,0.00,,CLR,0.00,218.00,VWS V14.00,2013-06-15 14:14:00,
2013-06-15 10:19:00,82.7,74.4,29.97,NE,43,1.0,1.0,76,0.00,,CLR,0.00,220.00,VWS V14.00,2013-06-15 14:19:00,
2013-06-15 10:24:00,82.9,74.2,29.97,NE,42,0.0,1.0,75,0.00,,CLR,0.00,216.00,VWS V14.00,2013-06-15 14:24:00,
2013-06-15 10:29:00,83.3,75.3,29.97,NE,42,0.0,1.0,77,0.00,,CLR,0.00,221.00,VWS V14.00,2013-06-15 14:29:00,
2013-06-15 10:34:00,83.9,75.5,29.97,NE,42,1.0,1.0,76,0.00,,CLR,0.00,209.00,VWS V14.00,2013-06-15 14:34:00,
2013-06-15 10:39:00,84.1,74.9,29.97,NE,42,1.0,4.0,74,0.00,,CLR,0.00,204.00,VWS V14.00,2013-06-15 14:39:00,
2013-06-15 10:44:00,84.1,74.1,29.97,NNE,17,5.0,7.0,72,0.00,,CLR,0.00,213.00,VWS V14.00,2013-06-15 14:44:00,
2013-06-15 10:49:00,83.9,73.1,29.97,NNE,13,5.0,6.0,70,0.00,,CLR,0.00,207.00,VWS V14.00,2013-06-15 14:49:00,
2013-06-15 10:54:00,83.8,73.4,29.97,NNE,13,3.0,4.0,71,0.00,,CLR,0.00,209.00,VWS V14.00,2013-06-15 14:54:00,
2013-06-15 10:59:00,83.9,74.7,29.97,NNE,13,0.0,1.0,74,0.00,,CLR,0.00,213.00,VWS V14.00,2013-06-15 14:59:00,
2013-06-15 11:04:00,84.2,74.2,29.97,North,11,5.0,6.0,72,0.00,,CLR,0.00,223.00,VWS V14.00,2013-06-15 15:04:00,
2013-06-15 11:09:00,84.4,74.4,29.97,North,11,0.0,0.0,72,0.00,,CLR,0.00,229.00,VWS V14.00,2013-06-15 15:09:00,
2013-06-15 11:14:00,84.7,74.3,29.97,NNE,20,3.0,6.0,71,0.00,,CLR,0.00,234.00,VWS V14.00,2013-06-15 15:14:00,
2013-06-15 11:19:00,84.9,74.0,29.98,NNE,19,2.0,6.0,70,0.00,,CLR,0.00,172.00,VWS V14.00,2013-06-15 15:19:00,
2013-06-15 11:24:00,84.7,73.0,29.98,NE,36,2.0,7.0,68,0.00,,CLR,0.00,229.00,VWS V14.00,2013-06-15 15:24:00,
2013-06-15 11:29:00,84.9,74.0,29.98,NE,36,0.0,0.0,70,0.00,,CLR,0.00,230.00,VWS V14.00,2013-06-15 15:29:00,
2013-06-15 11:34:00,85.0,73.3,29.98,NE,36,0.0,1.0,68,0.00,,CLR,0.00,227.00,VWS V14.00,2013-06-15 15:34:00,
2013-06-15 11:39:00,85.1,74.2,29.98,NE,37,3.0,4.0,70,0.00,,CLR,0.00,230.00,VWS V14.00,2013-06-15 15:39:00,
2013-06-15 11:44:00,85.6,74.7,29.98,North,355,0.0,4.0,70,0.00,,CLR,0.00,204.00,VWS V14.00,2013-06-15 15:44:00,
2013-06-15 11:49:00,86.2,74.4,29.98,NNW,342,4.0,6.0,68,0.00,,CLR,0.00,192.00,VWS V14.00,2013-06-15 15:49:00,
2013-06-15 11:54:00,86.7,74.0,29.98,NNW,327,4.0,7.0,66,0.00,,CLR,0.00,188.00,VWS V14.00,2013-06-15 15:54:00,
2013-06-15 11:59:00,86.5,73.8,29.98,NW,319,0.0,3.0,66,0.00,,CLR,0.00,178.00,VWS V14.00,2013-06-15 15:59:00,
2013-06-15 12:04:00,86.1,73.4,29.98,NW,320,0.0,4.0,66,0.00,,CLR,0.00,181.00,VWS V14.00,2013-06-15 16:04:00,
2013-06-15 12:09:00,85.7,73.5,29.99,NW,321,0.0,6.0,67,0.00,,CLR,0.00,97.00,VWS V14.00,2013-06-15 16:09:00,
2013-06-15 12:14:00,85.6,74.3,29.98,NW,319,3.0,7.0,69,0.00,,CLR,0.00,107.00,VWS V14.00,2013-06-15 16:14:00,
2013-06-15 12:19:00,85.6,73.8,29.98,NNW,337,6.0,6.0,68,0.00,,CLR,0.00,230.00,VWS V14.00,2013-06-15 16:19:00,
2013-06-15 12:24:00,85.5,73.3,29.97,North,5,0.0,2.0,67,0.00,,CLR,0.00,243.00,VWS V14.00,2013-06-15 16:24:00,
2013-06-15 12:29:00,85.8,73.6,29.97,North,5,0.0,0.0,67,0.00,,CLR,0.00,232.00,VWS V14.00,2013-06-15 16:29:00,
2013-06-15 12:34:00,86.4,74.2,29.98,North,9,4.0,6.0,67,0.00,,CLR,0.00,230.00,VWS V14.00,2013-06-15 16:34:00,
2013-06-15 12:39:00,86.5,74.2,29.98,North,360,0.0,1.0,67,0.00,,CLR,0.00,213.00,VWS V14.00,2013-06-15 16:39:00,
2013-06-15 12:44:00,86.7,74.0,29.98,North,355,6.0,6.0,66,0.00,,CLR,0.00,225.00,VWS V14.00,2013-06-15 16:44:00,
2013-06-15 12:49:00,86.4,73.2,29.97,North,5,0.0,4.0,65,0.00,,CLR,0.00,213.00,VWS V14.00,2013-06-15 16:49:00,
2013-06-15 12:54:00,86.5,74.2,29.98,North,5,1.0,5.0,67,0.00,,CLR,0.00,206.00,VWS V14.00,2013-06-15 16:54:00,
2013-06-15 12:59:00,87.0,73.4,29.97,North,5,0.0,4.0,64,0.00,,CLR,0.00,97.00,VWS V14.00,2013-06-15 16:59:00,
2013-06-15 13:04:00,87.5,73.8,29.97,North,5,0.0,0.0,64,0.00,,CLR,0.00,207.00,VWS V14.00,2013-06-15 17:04:00,
2013-06-15 13:09:00,88.0,74.3,29.98,North,5,3.0,6.0,64,0.00,,CLR,0.00,223.00,VWS V14.00,2013-06-15 17:09:00,
2013-06-15 13:14:00,87.8,74.1,29.97,North,5,1.0,6.0,64,0.00,,CLR,0.00,218.00,VWS V14.00,2013-06-15 17:14:00,
2013-06-15 13:19:00,87.4,73.3,29.97,North,5,5.0,5.0,63,0.00,,CLR,0.00,130.00,VWS V14.00,2013-06-15 17:19:00,
2013-06-15 13:24:00,87.2,73.1,29.97,North,355,3.0,5.0,63,0.00,,CLR,0.00,230.00,VWS V14.00,2013-06-15 17:24:00,
2013-06-15 13:29:00,87.4,73.7,29.97,North,5,4.0,6.0,64,0.00,,CLR,0.00,223.00,VWS V14.00,2013-06-15 17:29:00,
2013-06-15 13:34:00,87.4,73.3,29.96,North,5,5.0,5.0,63,0.00,,CLR,0.00,214.00,VWS V14.00,2013-06-15 17:34:00,
2013-06-15 13:39:00,87.2,73.1,29.96,North,9,1.0,4.0,63,0.00,,FEW042,0.00,120.00,VWS V14.00,2013-06-15 17:39:00,
2013-06-15 13:44:00,87.3,73.6,29.96,North,11,5.0,5.0,64,0.00,,FEW042,0.00,105.00,VWS V14.00,2013-06-15 17:44:00,
2013-06-15 13:49:00,87.2,73.1,29.96,North,10,3.0,6.0,63,0.00,,FEW042,0.00,204.00,VWS V14.00,2013-06-15 17:49:00,
2013-06-15 13:54:00,87.2,73.1,29.96,North,10,0.0,0.0,63,0.00,,FEW042,0.00,79.00,VWS V14.00,2013-06-15 17:54:00,
2013-06-15 13:59:00,87.5,73.8,29.96,North,11,5.0,6.0,64,0.00,,FEW042,0.00,230.00,VWS V14.00,2013-06-15 17:59:00,
2013-06-15 14:04:00,88.1,73.9,29.96,North,9,2.0,5.0,63,0.00,,FEW042,0.00,135.00,VWS V14.00,2013-06-15 18:04:00,
2013-06-15 14:09:00,88.3,73.2,29.96,North,10,0.0,0.0,61,0.00,,FEW042,0.00,227.00,VWS V14.00,2013-06-15 18:09:00,
2013-06-15 14:14:00,88.1,73.4,29.96,North,9,2.0,6.0,62,0.00,,FEW042,0.00,141.00,VWS V14.00,2013-06-15 18:14:00,
2013-06-15 14:19:00,88.3,73.6,29.96,North,5,0.0,4.0,62,0.00,,FEW042,0.00,239.00,VWS V14.00,2013-06-15 18:19:00,
2013-06-15 14:24:00,88.1,73.4,29.96,NNE,26,4.0,8.0,62,0.00,,FEW042,0.00,220.00,VWS V14.00,2013-06-15 18:24:00,
2013-06-15 14:29:00,88.0,73.4,29.95,NNE,24,4.0,6.0,62,0.00,,FEW042,0.00,229.00,VWS V14.00,2013-06-15 18:29:00,
2013-06-15 14:34:00,88.0,73.4,29.95,NNE,24,2.0,4.0,62,0.00,,FEW042,0.00,220.00,VWS V14.00,2013-06-15 18:34:00,
2013-06-15 14:39:00,88.4,73.7,29.95,NNE,19,3.0,4.0,62,0.00,,SCT060,0.00,227.00,VWS V14.00,2013-06-15 18:39:00,
2013-06-15 14:44:00,89.2,73.5,29.95,NW,315,5.0,9.0,60,0.00,,SCT060,0.00,227.00,VWS V14.00,2013-06-15 18:44:00,
2013-06-15 14:49:00,89.1,73.9,29.95,NNE,24,4.0,4.0,61,0.00,,SCT060,0.00,220.00,VWS V14.00,2013-06-15 18:49:00,
2013-06-15 14:54:00,88.1,76.7,29.95,ESE,105,3.0,9.0,69,0.00,,SCT060,0.00,221.00,VWS V14.00,2013-06-15 18:54:00,
2013-06-15 14:59:00,87.8,75.9,29.95,SE,128,3.0,3.0,68,0.00,,SCT060,0.00,93.00,VWS V14.00,2013-06-15 18:59:00,
2013-06-15 15:04:00,87.5,76.1,29.95,SE,130,4.0,4.0,69,0.00,,SCT060,0.00,193.00,VWS V14.00,2013-06-15 19:04:00,
2013-06-15 15:09:00,87.9,76.0,29.94,SE,135,3.0,6.0,68,0.00,,SCT060,0.00,220.00,VWS V14.00,2013-06-15 19:09:00,
2013-06-15 15:14:00,88.3,76.0,29.94,SE,140,2.0,4.0,67,0.00,,SCT060,0.00,105.00,VWS V14.00,2013-06-15 19:14:00,
2013-06-15 15:19:00,88.5,75.7,29.94,SE,140,3.0,5.0,66,0.00,,SCT060,0.00,174.00,VWS V14.00,2013-06-15 19:19:00,
2013-06-15 15:24:00,88.4,76.1,29.94,SE,140,4.0,5.0,67,0.00,,SCT060,0.00,207.00,VWS V14.00,2013-06-15 19:24:00,
2013-06-15 15:29:00,88.1,75.3,29.94,SE,142,3.0,7.0,66,0.00,,SCT060,0.00,93.00,VWS V14.00,2013-06-15 19:29:00,
2013-06-15 15:34:00,88.2,75.9,29.94,SE,144,1.0,2.0,67,0.00,,SCT060,0.00,200.00,VWS V14.00,2013-06-15 19:34:00,
2013-06-15 15:39:00,88.6,76.2,29.94,SE,144,4.0,6.0,67,0.00,,SCT060,0.00,199.00,VWS V14.00,2013-06-15 19:39:00,
2013-06-15 15:44:00,88.4,76.1,29.94,SE,144,0.0,1.0,67,0.00,,SCT060,0.00,156.00,VWS V14.00,2013-06-15 19:44:00,
2013-06-15 15:49:00,87.9,76.5,29.94,ESE,109,5.0,9.0,69,0.00,,SCT060,0.00,185.00,VWS V14.00,2013-06-15 19:49:00,
2013-06-15 15:54:00,87.4,76.0,29.94,ESE,121,3.0,8.0,69,0.00,,SCT060,0.00,195.00,VWS V14.00,2013-06-15 19:54:00,
2013-06-15 15:59:00,87.3,75.9,29.94,ESE,121,5.0,7.0,69,0.00,,SCT060,0.00,74.00,VWS V14.00,2013-06-15 19:59:00,
2013-06-15 16:04:00,87.0,76.0,29.93,ESE,123,4.0,4.0,70,0.00,,SCT060,0.00,76.00,VWS V14.00,2013-06-15 20:04:00,
2013-06-15 16:09:00,87.4,76.4,29.94,SE,124,3.0,5.0,70,0.00,,SCT060,0.00,65.00,VWS V14.00,2013-06-15 20:09:00,
2013-06-15 16:14:00,87.6,76.2,29.93,SE,130,7.0,7.0,69,0.00,,SCT060,0.00,60.00,VWS V14.00,2013-06-15 20:14:00,
2013-06-15 16:19:00,87.5,76.5,29.94,SE,134,2.0,4.0,70,0.00,,SCT060,0.00,160.00,VWS V14.00,2013-06-15 20:19:00,
2013-06-15 16:25:00,87.6,76.6,29.94,SSE,158,0.0,1.0,70,0.00,,SCT060,0.00,62.00,VWS V14.00,2013-06-15 20:25:00,
2013-06-15 16:30:00,87.8,76.4,29.94,SSE,158,5.0,5.0,69,0.00,,SCT060,0.00,54.00,VWS V14.00,2013-06-15 20:30:00,
2013-06-15 16:35:00,87.5,76.1,29.94,SSE,157,0.0,1.0,69,0.00,,SCT060,0.00,62.00,VWS V14.00,2013-06-15 20:35:00,
2013-06-15 16:40:00,87.4,76.0,29.94,SSE,158,0.0,4.0,69,0.00,,SCT070,0.00,165.00,VWS V14.00,2013-06-15 20:40:00,
2013-06-15 16:45:00,87.4,76.4,29.94,SSE,158,4.0,5.0,70,0.00,,SCT070,0.00,162.00,VWS V14.00,2013-06-15 20:45:00,
2013-06-15 16:50:00,87.6,76.6,29.93,SSE,156,6.0,9.0,70,0.00,,SCT070,0.00,54.00,VWS V14.00,2013-06-15 20:50:00,
2013-06-15 16:55:00,87.7,76.3,29.93,SSE,155,1.0,6.0,69,0.00,,SCT070,0.00,162.00,VWS V14.00,2013-06-15 20:55:00,
2013-06-15 17:00:00,87.6,76.2,29.93,SSE,155,4.0,6.0,69,0.00,,SCT070,0.00,169.00,VWS V14.00,2013-06-15 21:00:00,
2013-06-15 17:05:00,87.7,76.7,29.93,SE,131,9.0,9.0,70,0.00,,SCT070,0.00,174.00,VWS V14.00,2013-06-15 21:05:00,
2013-06-15 17:10:00,87.5,76.1,29.93,SE,142,4.0,5.0,69,0.00,,SCT070,0.00,156.00,VWS V14.00,2013-06-15 21:10:00,
2013-06-15 17:15:00,87.3,76.3,29.93,SE,134,5.0,11.0,70,0.00,,SCT070,0.00,51.00,VWS V14.00,2013-06-15 21:15:00,
2013-06-15 17:20:00,86.8,75.8,29.93,SSE,148,6.0,10.0,70,0.00,,SCT070,0.00,130.00,VWS V14.00,2013-06-15 21:20:00,
2013-06-15 17:25:00,86.3,75.8,29.93,SSE,157,4.0,6.0,71,0.00,,SCT070,0.00,39.00,VWS V14.00,2013-06-15 21:25:00,
2013-06-15 17:30:00,86.2,75.7,29.93,SSE,149,6.0,11.0,71,0.00,,SCT070,0.00,33.00,VWS V14.00,2013-06-15 21:30:00,
2013-06-15 17:35:00,85.9,75.8,29.93,SE,136,7.0,7.0,72,0.00,,SCT070,0.00,30.00,VWS V14.00,2013-06-15 21:35:00,
2013-06-15 17:40:00,85.6,75.5,29.93,SE,142,6.0,10.0,72,0.00,,CLR,0.00,28.00,VWS V14.00,2013-06-15 21:40:00,
2013-06-15 17:45:00,85.2,75.2,29.93,SE,141,7.0,10.0,72,0.00,,CLR,0.00,26.00,VWS V14.00,2013-06-15 21:45:00,
2013-06-15 17:50:00,85.0,75.0,29.94,SE,137,2.0,4.0,72,0.00,,CLR,0.00,26.00,VWS V14.00,2013-06-15 21:50:00,
2013-06-15 17:55:00,84.9,75.3,29.94,SE,146,2.0,8.0,73,0.00,,CLR,0.00,23.00,VWS V14.00,2013-06-15 21:55:00,
2013-06-15 18:00:00,84.8,75.2,29.94,SSE,153,0.0,3.0,73,0.00,,CLR,0.00,23.00,VWS V14.00,2013-06-15 22:00:00,
2013-06-15 18:05:00,84.8,75.2,29.94,SSE,150,0.0,7.0,73,0.00,,CLR,0.00,21.00,VWS V14.00,2013-06-15 22:05:00,
2013-06-15 18:10:00,84.8,75.2,29.94,SSE,148,4.0,9.0,73,0.00,,CLR,0.00,26.00,VWS V14.00,2013-06-15 22:10:00,
2013-06-15 18:15:00,84.8,75.6,29.94,SSE,148,3.0,7.0,74,0.00,,CLR,0.00,83.00,VWS V14.00,2013-06-15 22:15:00,
2013-06-15 18:20:00,84.8,75.6,29.94,SSE,154,0.0,1.0,74,0.00,,CLR,0.00,23.00,VWS V14.00,2013-06-15 22:20:00,
2013-06-15 18:25:00,84.7,75.5,29.94,SE,146,3.0,6.0,74,0.00,,CLR,0.00,18.00,VWS V14.00,2013-06-15 22:25:00,
2013-06-15 18:30:00,84.5,75.3,29.94,SSE,147,4.0,7.0,74,0.00,,CLR,0.00,18.00,VWS V14.00,2013-06-15 22:30:00,
2013-06-15 18:35:00,84.3,75.1,29.94,SE,144,2.0,7.0,74,0.00,,CLR,0.00,19.00,VWS V14.00,2013-06-15 22:35:00,
2013-06-15 18:40:00,84.1,74.9,29.94,SE,136,4.0,5.0,74,0.00,,FEW110,0.00,23.00,VWS V14.00,2013-06-15 22:40:00,
2013-06-15 18:45:00,84.0,75.2,29.95,SE,137,4.0,4.0,75,0.00,,FEW110,0.00,28.00,VWS V14.00,2013-06-15 22:45:00,
2013-06-15 18:50:00,84.0,74.8,29.95,SE,145,1.0,3.0,74,0.00,,FEW110,0.00,26.00,VWS V14.00,2013-06-15 22:50:00,
2013-06-15 18:55:00,84.0,74.8,29.95,SE,146,4.0,6.0,74,0.00,,FEW110,0.00,18.00,VWS V14.00,2013-06-15 22:55:00,
2013-06-15 19:00:00,83.9,75.1,29.95,SE,146,6.0,10.0,75,0.00,,FEW110,0.00,16.00,VWS V14.00,2013-06-15 23:00:00,
2013-06-15 19:05:00,83.8,75.0,29.95,SSE,148,6.0,7.0,75,0.00,,FEW110,0.00,14.00,VWS V14.00,2013-06-15 23:05:00,
2013-06-15 19:10:00,83.6,74.8,29.95,SSE,148,1.0,2.0,75,0.00,,FEW110,0.00,12.00,VWS V14.00,2013-06-15 23:10:00,
2013-06-15 19:15:00,83.5,75.1,29.95,SSE,150,0.0,6.0,76,0.00,,FEW110,0.00,12.00,VWS V14.00,2013-06-15 23:15:00,
2013-06-15 19:20:00,83.4,75.1,29.96,SSE,150,1.0,4.0,76,0.00,,FEW110,0.00,9.00,VWS V14.00,2013-06-15 23:20:00,
2013-06-15 19:25:00,83.3,74.9,29.96,SE,142,3.0,6.0,76,0.00,,FEW110,0.00,7.00,VWS V14.00,2013-06-15 23:25:00,
2013-06-15 19:30:00,83.2,75.2,29.96,SSE,154,5.0,6.0,77,0.00,,FEW110,0.00,7.00,VWS V14.00,2013-06-15 23:30:00,
2013-06-15 19:35:00,83.0,75.1,29.96,SSE,150,3.0,9.0,77,0.00,,FEW110,0.00,5.00,VWS V14.00,2013-06-15 23:35:00,
2013-06-15 19:40:00,82.9,74.9,29.96,SE,146,6.0,7.0,77,0.00,,FEW110,0.00,5.00,VWS V14.00,2013-06-15 23:40:00,
2013-06-15 19:45:00,82.8,74.9,29.96,SE,142,0.0,4.0,77,0.00,,FEW110,0.00,5.00,VWS V14.00,2013-06-15 23:45:00,
2013-06-15 19:50:00,82.7,74.8,29.96,SE,146,6.0,8.0,77,0.00,,FEW110,0.00,5.00,VWS V14.00,2013-06-15 23:50:00,
2013-06-15 19:55:00,82.6,74.7,29.96,SSE,151,4.0,6.0,77,0.00,,FEW110,0.00,0.00,VWS V14.00,2013-06-15 23:55:00,
2013-06-15 20:00:00,82.6,74.7,29.97,SSE,153,4.0,6.0,77,0.00,,FEW110,0.00,0.00,VWS V14.00,2013-06-16 00:00:00,
2013-06-15 20:05:00,82.5,74.6,29.96,SSE,153,0.0,5.0,77,0.00,,FEW110,0.00,0.00,VWS V14.00,2013-06-16 00:05:00,
2013-06-15 20:10:00,82.5,74.9,29.96,SSE,153,0.0,1.0,78,0.00,,FEW110,0.00,0.00,VWS V14.00,2013-06-16 00:10:00,
2013-06-15 20:15:00,82.4,74.9,29.96,SSE,158,4.0,9.0,78,0.00,,FEW110,0.00,0.00,VWS V14.00,2013-06-16 00:15:00,
2013-06-15 20:20:00,82.3,74.8,29.96,SSE,163,6.0,7.0,78,0.00,,FEW110,0.00,0.00,VWS V14.00,2013-06-16 00:20:00,
2013-06-15 20:25:00,82.2,74.7,29.96,SSE,163,5.0,5.0,78,0.00,,SCT110,0.00,0.00,VWS V14.00,2013-06-16 00:25:00,
2013-06-15 20:30:00,82.2,74.7,29.96,SSE,163,0.0,3.0,78,0.00,,SCT110,0.00,0.00,VWS V14.00,2013-06-16 00:30:00,
2013-06-15 20:35:00,82.1,74.6,29.96,SSE,163,0.0,3.0,78,0.00,,SCT110,0.00,0.00,VWS V14.00,2013-06-16 00:35:00,
2013-06-15 20:40:00,82.0,74.5,29.97,SSE,163,0.0,4.0,78,0.00,,SCT110,0.00,0.00,VWS V14.00,2013-06-16 00:40:00,
2013-06-15 20:45:00,82.0,74.8,29.97,SSE,163,0.0,4.0,79,0.00,,SCT110,0.00,0.00,VWS V14.00,2013-06-16 00:45:00,
2013-06-15 20:50:00,82.0,74.8,29.97,SSE,163,0.0,4.0,79,0.00,,SCT110,0.00,0.00,VWS V14.00,2013-06-16 00:50:00,
2013-06-15 20:55:00,81.9,74.8,29.97,SSE,163,2.0,3.0,79,0.00,,SCT110,0.00,0.00,VWS V14.00,2013-06-16 00:55:00,
2013-06-15 21:00:00,81.8,74.7,29.97,SSE,163,0.0,0.0,79,0.00,,SCT110,0.00,0.00,VWS V14.00,2013-06-16 01:00:00,
2013-06-15 21:05:00,81.8,74.7,29.97,SSE,163,3.0,4.0,79,0.00,,SCT110,0.00,0.00,VWS V14.00,2013-06-16 01:05:00,
2013-06-15 21:10:00,81.7,74.6,29.97,SSE,163,3.0,3.0,79,0.00,,SCT110,0.00,0.00,VWS V14.00,2013-06-16 01:10:00,
2013-06-15 21:15:00,81.7,74.9,29.97,SSE,163,0.0,1.0,80,0.00,,SCT110,0.00,0.00,VWS V14.00,2013-06-16 01:15:00,
2013-06-15 21:20:00,81.6,74.8,29.98,SSE,163,1.0,1.0,80,0.00,,SCT110,0.00,0.00,VWS V14.00,2013-06-16 01:20:00,
2013-06-15 21:25:00,81.6,74.8,29.98,SSE,163,0.0,0.0,80,0.00,,SCT110,0.00,0.00,VWS V14.00,2013-06-16 01:25:00,
2013-06-15 21:30:00,81.5,74.7,29.98,SSE,163,0.0,2.0,80,0.00,,SCT110,0.00,0.00,VWS V14.00,2013-06-16 01:30:00,
2013-06-15 21:35:00,81.5,74.7,29.98,SSE,163,0.0,0.0,80,0.00,,SCT110,0.00,0.00,VWS V14.00,2013-06-16 01:35:00,
2013-06-15 21:40:00,81.5,74.7,29.98,SSE,163,0.0,1.0,80,0.00,,SCT110,0.00,0.00,VWS V14.00,2013-06-16 01:40:00,
2013-06-15 21:45:00,81.4,75.0,29.98,SSE,163,0.0,0.0,81,0.00,,SCT110,0.00,0.00,VWS V14.00,2013-06-16 01:45:00,
2013-06-15 21:50:00,81.3,74.9,29.98,SSE,163,0.0,0.0,81,0.00,,SCT110,0.00,0.00,VWS V14.00,2013-06-16 01:50:00,
2013-06-15 21:55:00,81.3,74.9,29.98,SSE,163,0.0,4.0,81,0.00,,SCT110,0.00,0.00,VWS V14.00,2013-06-16 01:55:00,
2013-06-15 22:00:00,81.2,74.8,29.98,SSE,163,0.0,2.0,81,0.00,,SCT110,0.00,0.00,VWS V14.00,2013-06-16 02:00:00,
2013-06-15 22:05:00,81.2,74.8,29.98,SSE,163,0.0,2.0,81,0.00,,SCT110,0.00,0.00,VWS V14.00,2013-06-16 02:05:00,
2013-06-15 22:10:00,81.1,75.1,29.98,SSE,163,0.0,2.0,82,0.00,,SCT110,0.00,0.00,VWS V14.00,2013-06-16 02:10:00,
2013-06-15 22:15:00,81.1,75.1,29.98,SSE,163,0.0,0.0,82,0.00,,SCT110,0.00,0.00,VWS V14.00,2013-06-16 02:15:00,
2013-06-15 22:20:00,81.0,75.0,29.98,SSE,163,0.0,2.0,82,0.00,,SCT110,0.00,0.00,VWS V14.00,2013-06-16 02:20:00,
2013-06-15 22:25:00,81.0,75.0,29.99,SSE,163,1.0,1.0,82,0.00,,SCT110,0.00,0.00,VWS V14.00,2013-06-16 02:25:00,
2013-06-15 22:31:00,80.9,74.9,29.99,SSE,163,0.0,0.0,82,0.00,,SCT110,0.00,0.00,VWS V14.00,2013-06-16 02:31:00,
2013-06-15 22:36:00,80.9,74.9,29.99,SSE,163,0.0,0.0,82,0.00,,SCT110,0.00,0.00,VWS V14.00,2013-06-16 02:36:00,
2013-06-15 22:41:00,80.8,74.8,29.99,SSE,163,0.0,0.0,82,0.00,,SCT110,0.00,0.00,VWS V14.00,2013-06-16 02:41:00,
2013-06-15 22:46:00,80.8,74.8,30.00,SSE,163,0.0,0.0,82,0.00,,SCT110,0.00,0.00,VWS V14.00,2013-06-16 02:46:00,
2013-06-15 22:51:00,80.7,74.7,30.00,SSE,163,0.0,0.0,82,0.00,,SCT110,0.00,0.00,VWS V14.00,2013-06-16 02:51:00,
2013-06-15 22:56:00,80.7,74.7,30.00,SSE,163,0.0,0.0,82,0.00,,SCT110,0.00,0.00,VWS V14.00,2013-06-16 02:56:00,
2013-06-15 23:01:00,80.6,74.6,30.00,SSE,163,0.0,0.0,82,0.00,,SCT110,0.00,0.00,VWS V14.00,2013-06-16 03:01:00,
2013-06-15 23:06:00,80.6,74.6,30.00,SSE,163,0.0,0.0,82,0.00,,SCT110,0.00,0.00,VWS V14.00,2013-06-16 03:06:00,
2013-06-15 23:11:00,80.5,74.9,30.00,SSE,163,0.0,0.0,83,0.00,,SCT110,0.00,0.00,VWS V14.00,2013-06-16 03:11:00,
2013-06-15 23:16:00,80.4,74.8,30.00,SSE,163,0.0,1.0,83,0.00,,SCT110,0.00,0.00,VWS V14.00,2013-06-16 03:16:00,
2013-06-15 23:21:00,80.3,74.7,30.00,SSE,163,0.0,0.0,83,0.00,,SCT110,0.00,0.00,VWS V14.00,2013-06-16 03:21:00,
2013-06-15 23:26:00,80.2,74.6,30.01,SSE,163,0.0,0.0,83,0.00,,SCT110,0.00,0.00,VWS V14.00,2013-06-16 03:26:00,
2013-06-15 23:31:00,80.2,74.6,30.01,SSE,163,0.0,0.0,83,0.00,,SCT110,0.00,0.00,VWS V14.00,2013-06-16 03:31:00,
2013-06-15 23:36:00,80.2,74.6,30.01,SSE,163,0.0,0.0,83,0.00,,SCT110,0.00,0.00,VWS V14.00,2013-06-16 03:36:00,
2013-06-15 23:41:00,80.1,74.5,30.01,SSE,163,0.0,0.0,83,0.00,,CLR,0.00,0.00,VWS V14.00,2013-06-16 03:41:00,
2013-06-15 23:46:00,80.0,74.4,30.01,SSE,163,0.0,0.0,83,0.00,,CLR,0.00,0.00,VWS V14.00,2013-06-16 03:46:00,
2013-06-15 23:51:00,80.0,74.4,30.01,SSE,163,0.0,0.0,83,0.00,,CLR,0.00,0.00,VWS V14.00,2013-06-16 03:51:00,
2013-06-15 23:56:00,79.9,74.3,30.01,SSE,163,0.0,0.0,83,0.00,,CLR,0.00,0.00,VWS V14.00,2013-06-16 03:56:00,